Hourly Data Report for December 30, 2019

EUREKA CLIMATE
NUNAVUT
Current Station Operator: ECCC - MSC

79°59'21.000" N
85°56'02.000" W
10.00 m
2401199
71613
NEK

Download Data

Hourly Data (December 2019)
Hourly Data Report for December 30, 2019
TIME
LST
Temp Definition
°C
Dew Point Definition
°C
Rel Hum Definition
%
Precip. Amount Definition
mm

Wind Dir Definition
10's deg

Wind Spd Definition
km/h
Visibility Definition
km
Stn Press Definition
kPa
Hmdx Definition


Wind Chill Definition


Weather Definition


00:00 -30.6 -33.8 74 0.0 15 27   99.33   -46 LegendNANA
01:00 -30.9 -33.9 75 0.0 14 28   99.38   -46 LegendNANA
02:00 -31.1 -34.4 73 0.0 17 34   99.37   -48 LegendNANA
03:00 -31.4 -34.6 73 0.0 15 28   99.43   -47 LegendNANA
04:00 -31.5 -34.8 72 0.0 15 26   99.44   -47 LegendNANA
05:00 -31.7 -35.0 73 0.0 15 28   99.43   -47 LegendNANA
06:00 -32.0 -35.1 73 0.0 15 27   99.46   -48 LegendNANA
07:00 -31.8 -35.0 73 0.0 15 26   99.43   -47 LegendNANA
08:00 -31.9 -35.0 74 0.0 15 26   99.42   -47 LegendNANA
09:00 -31.6 -34.8 73 0.0 16 25   99.41   -47 LegendNANA
10:00 -31.5 -34.8 73 0.0 16 23   99.41   -46 LegendNANA
11:00 -31.5 -34.7 73 0.0 17 22   99.44   -46 LegendNANA
12:00 -31.6 -34.7 74 0.0 18 16   99.41   -44 LegendNANA
13:00 -31.3 -34.3 74 0.0 28 5   99.44   -37 LegendNANA
14:00 -32.2 -35.5 73 0.0 32 6   99.51   -39 LegendNANA
15:00 -31.3 -34.4 74 0.0 27 8   99.55   -40 LegendNANA
16:00 -31.7 -34.8 74 0.0 8 5   99.57   -38 LegendNANA
17:00 -31.9 -35.0 74 0.0 1 2   99.61   -34 LegendNANA
18:00 -31.8 -34.9 74 0.0 28 11   99.62   -42 LegendNANA
19:00 -31.9 -35.0 74 0.0 23 5   99.64   -38 LegendNANA
20:00 -33.1 -36.3 73 0.0 10 9   99.68   -42 LegendNANA
21:00 -33.7 -37.0 72 0.0 10 5   99.70   -40 LegendNANA
22:00 -33.5 -36.7 73 0.0 10 15   99.71   -46 LegendNANA
23:00 -34.1 -37.5 71 0.0 9 10   99.74   -44 LegendNANA

Notes on Data Quality.

Legend

  • E = Estimated
  • M = Missing
  • NA = Not Available*
  • [empty] = Indicates an unobserved value
Date modified: